Stations météo

réclame
Mon MeteoGroup
Brodersby-Schönhagen, Allemagne (10042): Température de l'air & dewpoint: 17.08.2019 15:00:00 - 23.08.2019 15:00:00 (CEST)Brodersby-Schönhagen, Allemagne (10042): Température de l'air 5cm & Température de l'air -5cm: 17.08.2019 15:00:00 - 23.08.2019 15:00:00 (CEST)Brodersby-Schönhagen, Allemagne (10042): Température de l'air -20cm & Température de l'air -100cm: 17.08.2019 15:00:00 - 23.08.2019 15:00:00 (CEST)Brodersby-Schönhagen, Allemagne (10042): Vitesse du vent & gusts: 17.08.2019 15:00:00 - 23.08.2019 15:00:00 (CEST)Brodersby-Schönhagen, Allemagne (10042): Direction du vent: 17.08.2019 15:00:00 - 23.08.2019 15:00:00 (CEST)Brodersby-Schönhagen, Allemagne (10042): reduced air pressure: 17.08.2019 15:00:00 - 23.08.2019 15:00:00 (CEST)Brodersby-Schönhagen, Allemagne (10042): visibility: 17.08.2019 15:00:00 - 23.08.2019 15:00:00 (CEST)Brodersby-Schönhagen, Allemagne (10042): Ensoleillement: 17.08.2019 15:00:00 - 23.08.2019 15:00:00 (CEST)Brodersby-Schönhagen, Allemagne (10042): Quantités de précipitations: 17.08.2019 15:00:00 - 23.08.2019 15:00:00 (CEST)
Date & Time tt [°C] td [°C] tt 5cm [°C] tt -5cm [°C] tt -20cm [°C] tt -100cm [°C] ff [km/h] ff [knt] fx [km/h] fx [knt] dd ppp [hPa] vv [km] sd [min] rr [mm]
23.08.2019 15:00:00 23,8 14,5 26,4 25,9 18,8 16,4 20 11 31 17 SW 1025,6 61 60 0,0
23.08.2019 14:00:00 23,1 13,9 25,3 24,4 17,9 16,4 22 12 33 18 WSW 1025,8 72 60 0,0
23.08.2019 13:00:00 23,1 13,8 25,6 22,4 17,1 16,4 17 9 29 16 WSW 1025,9 65 60 0,0
23.08.2019 12:00:00 21,5 11,1 23,5 20,0 16,6 16,4 18 10 27 14 SW 1025,8 69 60 0,0
23.08.2019 11:00:00 20,3 8,0 21,7 18,0 16,2 16,4 20 11 29 16 SW 1025,7 64 60 0,0
23.08.2019 10:00:00 19,0 10,2 20,7 16,6 15,9 16,4 18 10 28 15 SW 1025,8 33 60 0,0
23.08.2019 09:00:00 17,2 13,0 17,8 15,1 15,8 16,4 17 9 23 12 SW 1025,5 25 48 0,0
23.08.2019 08:00:00 15,7 13,0 15,4 14,0 16,0 16,4 12 7 17 9 SW 1025,0 21 49 0,0
23.08.2019 07:00:00 13,6 11,8 12,6 13,3 16,2 16,4 12 7 16 8 SW 1024,8 13 17 0,0
23.08.2019 06:00:00 12,3 10,9 10,4 13,4 16,5 16,4 11 6 13 7 SSW 1024,7 11 0 0,0
23.08.2019 05:00:00 12,0 10,8 8,9 14,0 16,9 16,4 6 3 10 5 SW 1024,8 8 0 0,0
23.08.2019 04:00:00 12,8 11,1 10,1 14,4 17,2 16,4 8 4 14 7 SSW 1024,9 12 0 0,0
23.08.2019 03:00:00 12,0 10,8 10,3 14,9 17,6 16,4 8 4 11 6 SSW 1024,9 7 0 0,0
23.08.2019 02:00:00 12,2 11,0 10,7 15,4 18,0 16,4 6 3 10 5 SSW 1025,0 8 0 0,0
23.08.2019 01:00:00 12,7 11,1 10,2 16,1 18,5 16,4 6 3 11 6 SSW 1024,9 13 0 0,0
23.08.2019 00:00:00 12,2 10,9 9,7 16,9 19,0 16,4 6 3 10 5 S 1024,6 10 0 0,0
22.08.2019 23:00:00 13,4 11,6 10,6 17,9 19,4 16,4 5 3 8 4 SSW 1024,8 16 0 0,0
22.08.2019 22:00:00 15,2 11,7 11,9 19,2 19,8 16,4 4 2 6 4 SW 1024,9 15 0 0,0
22.08.2019 21:00:00 17,5 11,7 13,8 20,8 20,1 16,4 6 4 14 7 W 1024,3 28 8 0,0
22.08.2019 20:00:00 20,4 12,7 19,2 22,6 20,2 16,4 8 5 21 11 WNW 1023,9 34 54 0,0
22.08.2019 19:00:00 22,6 11,9 22,7 23,9 20,0 16,4 15 8 34 18 W 1023,6 47 60 0,0
22.08.2019 18:00:00 23,8 11,0 24,7 24,4 19,7 16,4 21 11 37 20 SW 1023,7 53 45 0,0
22.08.2019 17:00:00 23,1 11,0 23,5 24,9 19,2 16,5 22 12 39 21 SW 1023,9 62 46 0,0
22.08.2019 16:00:00 23,3 11,1 24,5 24,9 18,5 16,5 22 12 35 19 SW 1024,2 40 53 0,0
22.08.2019 15:00:00 23,5 11,0 25,4 24,1 17,8 16,5 23 13 39 21 SW 1024,6 43 60 0,0
22.08.2019 14:00:00 23,3 10,0 25,8 22,7 17,0 16,5 21 11 35 19 SSW 1024,9 70 60 0,0
22.08.2019 13:00:00 22,3 10,2 25,1 20,9 16,3 16,5 17 9 29 16 S 1025,1 74 60 0,0
22.08.2019 12:00:00 21,6 9,9 23,7 19,0 15,7 16,5 17 9 28 15 S 1025,9 37 60 0,0
22.08.2019 11:00:00 20,3 10,7 21,9 17,3 15,2 16,5 17 9 27 15 S 1026,1 35 60 0,0
22.08.2019 10:00:00 18,9 10,4 20,3 15,6 14,9 16,5 16 8 25 14 S 1026,3 55 60 0,0
22.08.2019 09:00:00 17,0 10,8 18,1 14,0 14,8 16,5 11 6 19 10 S 1026,6 50 60 0,0
22.08.2019 08:00:00 14,7 10,9 14,7 12,9 14,9 16,5 9 5 19 11 SSW 1026,7 36 54 0,0
22.08.2019 07:00:00 13,8 10,5 12,5 12,5 15,0 16,5 13 7 19 11 S 1026,6 37 0 0,0
22.08.2019 06:00:00 13,3 10,6 11,5 12,5 15,3 16,5 10 5 17 9 SSW 1026,7 35 0 0,0
22.08.2019 05:00:00 13,6 9,8 11,8 12,6 15,5 16,5 10 6 16 9 S 1027,2 42 0 0,0
22.08.2019 04:00:00 12,6 9,4 9,9 12,7 15,8 16,5 10 5 14 8 SSW 1027,4 41 0 0,0
22.08.2019 03:00:00 9,7 8,7 8,4 13,0 16,2 16,5 8 4 10 5 SW 1027,7 15 0 0,0
22.08.2019 02:00:00 10,8 9,7 8,2 13,5 16,5 16,5 6 4 10 5 SW 1027,8 22 0 0,0
22.08.2019 01:00:00 11,9 9,6 9,2 14,1 16,9 16,5 9 5 11 6 SW 1027,9 33 0 0,0
22.08.2019 00:00:00 13,3 10,8 10,4 14,7 17,4 16,5 9 5 11 6 SSW 1027,9 39 0 0,0
21.08.2019 23:00:00 13,9 10,9 10,5 15,6 17,8 16,5 8 4 11 6 SSW 1027,9 43 0 0,0
21.08.2019 22:00:00 12,2 10,6 10,3 16,6 18,2 16,5 8 4 10 5 SW 1027,7 40 0 0,0
21.08.2019 21:00:00 14,1 11,3 11,6 18,0 18,4 16,5 6 4 11 6 SW 1027,4 42 18 0,0
21.08.2019 20:00:00 17,5 10,8 16,5 19,4 18,5 16,5 9 5 18 10 WSW 1027,3 62 59 0,0
21.08.2019 19:00:00 19,3 10,1 19,6 20,3 18,4 16,5 16 9 26 14 W 1027,3 75 60 0,0
21.08.2019 18:00:00 19,7 10,4 20,3 20,8 18,2 16,5 19 11 29 16 W 1027,1 75 52 0,0
21.08.2019 17:00:00 20,5 11,2 22,3 20,7 18,0 16,5 16 9 29 16 W 1026,9 60 43 0,0
21.08.2019 16:00:00 19,0 9,8 19,2 20,4 17,8 16,5 16 9 24 13 W 1027,0 61 12 0,0
21.08.2019 15:00:00 20,3 11,6 22,4 20,6 17,4 16,5 16 9 22 12 WSW 1026,9 71 8 0,0
21.08.2019 14:00:00 18,2 11,1 20,2 21,5 16,8 16,5 6 4 26 14 E 1027,1 37 45 0,0
21.08.2019 13:00:00 18,9 9,4 20,3 19,9 16,2 16,5 14 7 22 12 W 1027,0 67 38 0,0
21.08.2019 12:00:00 18,7 10,5 21,0 18,7 15,6 16,5 13 7 19 10 W 1026,9 45 45 0,0
21.08.2019 11:00:00 17,5 10,6 21,1 17,4 15,1 16,5 13 7 20 11 NW 1026,8 57 60 0,0
21.08.2019 10:00:00 16,7 11,9 19,5 15,5 14,8 16,5 13 7 22 12 WNW 1026,4 60 60 0,0
21.08.2019 09:00:00 15,2 12,5 16,3 13,9 14,7 16,5 14 8 23 12 WSW 1026,1 53 54 0,0
21.08.2019 08:00:00 13,5 11,8 14,0 12,5 14,8 16,5 11 6 19 10 SW 1025,6 38 47 0,0
21.08.2019 07:00:00 12,1 10,8 11,3 12,1 15,0 16,6 12 6 19 10 SW 1025,1 35 6 0,0
21.08.2019 06:00:00 11,1 9,9 9,7 12,3 15,3 16,6 13 7 16 8 SW 1024,6 41 0 0,0
21.08.2019 05:00:00 11,1 9,8 9,8 12,7 15,5 16,6 12 7 15 8 SW 1024,6 34 0 0,0
21.08.2019 04:00:00 11,8 10,6 10,5 13,1 15,8 16,6 12 6 20 11 SW 1024,2 27 0 0,0
21.08.2019 03:00:00 12,7 11,2 11,6 13,4 16,0 16,6 13 7 19 10 WSW 1023,9 37 0 0,0
21.08.2019 02:00:00 12,7 11,2 11,8 13,7 16,4 16,6 12 7 16 9 SW 1023,7 38 0 0,0
21.08.2019 01:00:00 12,8 11,1 11,7 14,0 16,7 16,6 14 7 18 10 SW 1023,7 38 0 0,0
21.08.2019 00:00:00 11,6 10,2 9,9 14,5 17,1 16,6 9 5 16 8 WSW 1023,4 33 0 0,0
20.08.2019 23:00:00 12,7 10,6 11,0 15,3 17,5 16,6 9 5 14 8 WSW 1023,2 44 0 0,0
20.08.2019 22:00:00 13,2 10,3 11,4 16,1 17,8 16,6 7 4 14 8 WSW 1022,9 49 0 0,0
20.08.2019 21:00:00 15,1 10,3 13,5 17,3 18,1 16,6 12 7 22 12 W 1022,5 59 11 0,0
20.08.2019 20:00:00 17,6 10,8 16,7 18,7 18,2 16,6 13 7 27 14 WSW 1021,9 60 52 0,0
20.08.2019 19:00:00 19,0 11,2 18,9 19,6 18,2 16,6 19 10 29 15 W 1021,6 63 59 0,0
20.08.2019 18:00:00 19,7 12,1 20,7 20,2 18,0 16,6 19 10 31 17 W 1021,2 58 45 0,0
20.08.2019 17:00:00 20,2 11,7 21,3 20,5 17,7 16,6 21 11 34 19 WSW 1021,1 53 50 0,0
20.08.2019 16:00:00 19,4 10,7 19,8 20,7 17,3 16,6 23 13 35 19 WSW 1020,6 60 50 0,0
20.08.2019 15:00:00 19,6 12,8 22,3 19,1 17,0 16,6 13 7 29 16 SW 1020,6 41 13 0,0
20.08.2019 14:00:00 19,2 12,1 20,7 19,1 16,6 16,6 21 11 32 17 WSW 1020,3 43 27 0,0
20.08.2019 13:00:00 16,7 11,4 17,0 18,8 16,2 16,6 21 11 49 27 W 1020,2 59 27 0,0
20.08.2019 12:00:00 19,0 13,5 21,1 18,4 15,7 16,6 19 10 37 20 WSW 1019,6 41 51 0,0
20.08.2019 11:00:00 17,2 13,0 17,9 17,1 15,3 16,6 24 13 37 20 SW 1019,3 39 55 0,0
20.08.2019 10:00:00 16,8 13,6 18,1 15,6 15,0 16,6 23 12 34 18 SW 1018,9 31 60 0,0
20.08.2019 09:00:00 15,3 12,5 16,1 14,1 14,9 16,6 20 11 32 17 SW 1018,5 40 60 0,0
20.08.2019 08:00:00 14,1 11,7 14,2 13,1 15,0 16,7 16 9 24 13 SW 1017,9 40 60 0,0
20.08.2019 07:00:00 12,9 11,2 12,1 12,7 15,2 16,7 12 6 19 11 SSW 1017,5 27 2 0,0
20.08.2019 06:00:00 12,7 11,2 11,4 12,9 15,5 16,7 14 7 21 12 SSW 1017,2 31 0 0,0
20.08.2019 05:00:00 12,8 11,1 11,7 13,1 15,7 16,7 15 8 21 11 SSW 1017,3 34 0 0,0
20.08.2019 04:00:00 13,3 11,4 11,7 13,4 16,0 16,7 15 8 24 13 S 1017,1 34 0 0,0
20.08.2019 03:00:00 11,4 10,9 9,6 13,8 16,2 16,7 6 3 11 6 WSW 1017,0 1,4 0 0,0
20.08.2019 02:00:00 12,9 11,8 11,9 14,3 16,5 16,7 9 5 18 10 WSW 1017,0 30 0 0,0
20.08.2019 01:00:00 14,2 12,2 13,0 14,6 16,8 16,7 18 10 36 19 SW 1016,8 40 0 0,6
20.08.2019 00:00:00 13,9 12,4 12,7 15,0 17,1 16,7 11 6 19 10 SSW 1016,5 29 0 0,0
19.08.2019 23:00:00 14,2 12,9 13,1 15,6 17,3 16,7 13 7 19 11 SSW 1016,4 29 0 0,0
19.08.2019 22:00:00 14,5 13,2 12,9 16,4 17,6 16,7 9 5 22 12 SSW 1016,1 27 0 0,0
19.08.2019 21:00:00 15,1 13,6 14,3 17,0 17,8 16,7 8 4 19 11 SSW 1015,8 40 0 0,1
19.08.2019 20:00:00 15,1 13,5 14,2 17,6 17,9 16,7 18 10 34 18 WSW 1015,6 10 0 2,3
19.08.2019 19:00:00 18,1 13,5 17,7 18,8 17,9 16,7 18 10 33 18 SSW 1014,8 35 31 0,0
19.08.2019 18:00:00 18,6 12,7 18,8 18,7 17,9 16,7 22 12 41 22 WSW 1014,4 33 13 0,0
19.08.2019 17:00:00 18,7 12,9 18,7 19,3 17,8 16,7 29 16 51 28 SW 1014,2 39 11 0,0
19.08.2019 16:00:00 20,1 12,7 20,9 19,6 17,6 16,7 32 17 51 28 WSW 1013,5 36 27 0,0
19.08.2019 15:00:00 19,2 12,7 19,8 20,0 17,3 16,7 31 17 51 28 WSW 1013,1 42 38 0,0
19.08.2019 14:00:00 19,5 12,8 21,4 19,8 16,8 16,7 35 19 54 29 WSW 1012,2 29 42 0,0
19.08.2019 13:00:00 18,9 14,1 20,3 18,7 16,5 16,7 24 13 40 22 SSW 1011,8 42 27 0,0
19.08.2019 12:00:00 17,4 13,7 18,0 18,0 16,1 16,7 24 13 42 23 SW 1011,4 29 13 0,0
19.08.2019 11:00:00 17,3 14,2 18,0 17,2 15,8 16,7 26 14 36 20 SW 1011,1 28 8 0,0
19.08.2019 10:00:00 16,7 14,0 17,5 16,3 15,6 16,7 25 13 38 21 SW 1010,6 29 22 0,0
19.08.2019 09:00:00 15,8 14,0 16,5 15,0 15,5 16,7 20 11 35 19 SSW 1010,1 19 2 0,0
19.08.2019 08:00:00 15,2 13,8 15,4 14,1 15,5 16,7 16 9 27 14 SSW 1010,0 11 56 0,0
19.08.2019 07:00:00 14,2 13,3 13,4 13,7 15,6 16,7 14 8 27 14 SSW 1009,4 8 7 0,0
19.08.2019 06:00:00 14,2 13,4 13,1 13,7 15,8 16,8 12 7 21 11 SSW 1009,0 7 0 0,0
19.08.2019 05:00:00 14,1 13,2 12,9 13,9 16,0 16,8 11 6 18 10 S 1008,8 9 0 0,0
19.08.2019 04:00:00 14,1 13,2 12,9 14,1 16,2 16,8 12 6 18 10 S 1008,3 12 0 0,0
19.08.2019 03:00:00 14,3 13,1 13,0 14,4 16,4 16,8 11 6 17 9 SSW 1008,3 23 0 0,0
19.08.2019 02:00:00 14,3 13,1 13,2 14,9 16,6 16,8 13 7 23 12 SW 1008,0 27 0 0,0
19.08.2019 01:00:00 15,1 13,8 14,6 15,0 16,8 16,8 17 9 24 13 SW 1007,8 25 0 0,0
19.08.2019 00:00:00 14,2 13,3 13,2 15,0 17,1 16,8 14 8 19 10 SW 1007,4 21 0 0,0
18.08.2019 23:00:00 13,9 13,0 12,9 15,5 17,4 16,8 12 7 18 10 SW 1007,1 23 0 0,0
18.08.2019 22:00:00 14,2 12,7 13,1 16,3 17,7 16,8 13 7 24 13 SW 1006,4 31 0 0,0
18.08.2019 21:00:00 15,6 13,6 14,9 17,3 17,8 16,8 18 10 29 16 WSW 1005,5 33 3 0,0
18.08.2019 20:00:00 16,9 13,9 16,5 18,0 17,9 16,8 16 9 29 16 WSW 1005,0 39 0 0,0
18.08.2019 19:00:00 17,3 14,0 17,3 18,9 17,8 16,8 18 10 29 16 WSW 1004,6 36 25 0,0
18.08.2019 18:00:00 17,6 14,8 18,4 18,7 17,6 16,8 18 10 27 14 WSW 1004,5 46 5 0,0
18.08.2019 17:00:00 16,4 14,1 17,1 18,5 17,5 16,8 14 8 22 12 SW 1004,4 50 0 0,0
18.08.2019 16:00:00 15,7 14,5 15,6 18,0 17,5 16,8 6 3 13 7 SSW 1004,3 17 0 0,1
18.08.2019 15:00:00 15,2 13,6 15,2 18,3 17,4 16,8 8 5 13 7 SSW 1004,3 36 0 1,0
18.08.2019 14:00:00 15,5 12,7 15,1 18,1 17,3 16,8 6 4 26 14 SSW 1004,5 4,9 0 0,6
18.08.2019 13:00:00 16,9 15,0 16,5 18,3 17,1 16,8 18 10 27 14 SW 1004,7 7 0 0,3
18.08.2019 12:00:00 17,4 16,1 17,4 17,8 17,0 16,8 10 5 19 10 S 1004,3 9 0 0,3
18.08.2019 11:00:00 17,0 15,8 16,7 17,4 16,8 16,8 11 6 18 10 S 1004,7 10 0 0,2
18.08.2019 10:00:00 16,9 15,8 17,0 17,0 16,7 16,8 7 4 15 8 SSW 1004,7 12 0 0,0
18.08.2019 09:00:00 16,7 15,9 16,8 16,4 16,7 16,8 6 3 13 7 SSW 1004,8 8 0 0,0
18.08.2019 08:00:00 16,2 15,6 16,0 16,0 16,7 16,8 11 6 17 9 SW 1004,9 7 0 0,0
18.08.2019 07:00:00 15,8 15,3 15,2 15,8 16,8 16,8 11 6 16 9 SW 1005,4 6 0 0,0
18.08.2019 06:00:00 15,6 15,2 15,1 15,8 17,0 16,8 8 4 10 5 SSW 1005,0 7 0 0,0
18.08.2019 05:00:00 15,4 14,9 14,6 15,8 17,1 16,8 6 3 13 7 SSW 1005,1 9 0 0,0
18.08.2019 04:00:00 15,6 15,0 14,8 16,2 17,3 16,8 12 6 15 8 SW 1005,4 15 0 0,0
18.08.2019 03:00:00 15,9 15,2 15,5 16,4 17,5 16,8 9 5 12 7 SSW 1005,7 21 0 0,0
18.08.2019 02:00:00 14,8 14,2 14,2 16,6 17,6 16,8 6 3 8 4 WSW 1006,2 5 0 0,0
18.08.2019 01:00:00 15,7 15,0 15,1 17,0 17,8 16,8 5 3 23 12 W 1005,8 28 0 0,3
18.08.2019 00:00:00 16,5 15,7 16,0 17,3 17,9 16,8 14 8 27 15 WSW 1005,9 17 0 5,2
17.08.2019 23:00:00 16,8 15,8 16,3 17,5 18,1 16,8 13 7 22 12 SSE 1005,3 8 0 0,9
17.08.2019 22:00:00 16,8 15,4 16,5 17,9 18,2 16,8 9 5 15 8 S 1005,8 49 0 0,0
17.08.2019 21:00:00 16,1 15,0 14,9 18,4 18,3 16,8 5 3 24 13 SSW 1005,8 41 1 0,1
17.08.2019 20:00:00 17,6 16,2 17,0 19,2 18,3 16,8 18 10 33 18 SSW 1005,9 11 1 1,5
17.08.2019 19:00:00 19,4 16,9 19,3 20,0 18,2 16,8 14 8 29 16 SSW 1005,8 32 38 0,0
17.08.2019 18:00:00 18,8 17,5 19,3 19,3 18,1 16,8 11 6 29 15 SW 1006,0 19 1 1,0
17.08.2019 17:00:00 19,5 16,6 20,0 19,7 17,9 16,8 21 11 30 16 SSW 1005,8 38 5 0,0
17.08.2019 16:00:00 18,5 16,6 19,0 19,2 17,7 16,8 15 8 33 18 SSW 1005,9 17 0 0,0
17.08.2019 15:00:00 18,5 16,4 19,1 19,2 17,5 16,8 25 14 39 21 SSW 1005,8 31 0 0,2

tt = Température de l'air
td = dewpoint
tt 5cm = Température de l'air 5cm
tt -5cm = Température de l'air -5cm
tt -20cm = Température de l'air -20cm
tt -100cm = Température de l'air -100cm
ff = Vitesse du vent
fx = gusts
dd = Direction du vent
ppp = reduced air pressure
vv = visibility
sd = Ensoleillement
rr = Quantités de précipitations

stations d'obs. à proximité